Regional Weather Roundup
Issued by NWS San Diego, CA

Home | Current Version | Previous Version | Text Only | Print | Product List | Glossary On
Versions: 1 2 3 4 5 6 7 8 9 10 11 12 13 14 15 16 17 18 19 20 21 22 23 24 25 26 27 28 29 30 31 32 33 34 35 36 37 38 39 40 41 42 43 44 45 46 47 48 49 50
000
ASUS46 KSGX 230610
RWRSGX

SAN DIEGO HOURLY WEATHER ROUNDUP
NATIONAL WEATHER SERVICE SAN DIEGO CA
1100 PM PDT TUE JUL 22 2014

NOTE: "FAIR" INDICATES FEW OR NO CLOUDS BELOW 12,000 FEET WITH NO
SIGNIFICANT WEATHER AND/OR OBSTRUCTIONS TO VISIBILITY.

CAZ042-043-060-061-PZZ750-775-230700-

GREATER SAN DIEGO AREA

CITY           SKY/WX    TMP DP  RH WIND       PRES   REMARKS
LINDBERGH FLD  PTCLDY    71  62  73 N6        30.03R
POINT LOMA       N/A     66  63  89 NW6         N/A
NATIONAL CITY    N/A     73  63  72 N1        30.02S
CHULA VISTA      N/A     71  62  72 N1        29.95S
IMPERIAL BEACH CLEAR     70  63  78 NW5       30.02S
BROWN FIELD    CLEAR     70  56  61 NW3       30.02S
MIRAMAR MCAS   PTCLDY    68  61  78 N5        30.02S
MONTGOMERY FLD CLEAR     70  62  76 N5        30.03R

$$

NORTH SAN DIEGO COUNTY

CITY           SKY/WX    TMP DP  RH WIND       PRES   REMARKS
CAMP PENDLETON CLEAR     66  58  75 CALM      30.00F
OCEANSIDE AP   CLEAR     64  59  83 CALM      30.00S
VISTA            N/A     68  63  83 CALM      29.99S
CARLSBAD       CLEAR     68  63  84 W5        30.00F
DEL MAR          N/A     67  64  90 CALM      30.03F
LA JOLLA SCRIP   N/A     68  65  90 CALM      29.99S
FALLBROOK        N/A     67  64  90 CALM      30.02R
ESCONDIDO        N/A     71  61  71 W2        30.03S
SAN MARCOS       N/A     68  62  82 CALM      29.99S
POWAY            N/A     68  58  71 CALM      30.02R
R. PENASQUITOS   N/A     68  62  81 CALM      30.02S

$$

EAST SAN DIEGO COUNTY

CITY           SKY/WX    TMP DP  RH WIND       PRES   REMARKS
RAMONA         CLEAR     66  53  63 CALM      30.04S
GILLESPIE FLD  FAIR      70  54  56 W7        30.03S
LA MESA          N/A     71  60  68 NW3       29.95S
JAMUL            N/A     67  58  72 CALM      30.00S
DESCANSO N       N/A     64  44  47 E3        29.89R
MT. LAGUNA OBS   N/A     72  -2   5 CALM      29.85S
CAMPO            N/A     61  51  70 NE5       30.06F

$$

ORANGE COUNTY AND THE LOS ANGELES BASIN

CITY           SKY/WX    TMP DP  RH WIND       PRES   REMARKS
JOHN WAYNE AP  PTCLDY    72  59  63 SW6       30.01S
LAGUNA BEACH     N/A     68  61  78 CALM      29.97S
LAKE FOREST FR   N/A     72  47  42 CALM      29.89F
SANTA ANA        N/A     72  62  70 CALM      29.96S
HUNTINGTON BCH   N/A     67  62  84 CALM      30.02S
LOS ALAMITOS   FAIR      68  62  81 CALM      30.01S
FULLERTON      CLEAR     73  57  57 SW3       30.00R
LONG BEACH     CLEAR     70  60  70 NW3       30.00S
L.A. AP        CLEAR     70  61  73 W6        30.00S
L.A. DOWNTOWN  CLEAR     72  59  63 VRB3      30.00R

$$

THE INLAND EMPIRE

CITY           SKY/WX    TMP DP  RH WIND       PRES   REMARKS
CORONA         CLEAR     65  49  56 MISG      30.02S
CHINO          CLEAR     67  53  61 NW5       30.03S
ONTARIO        CLEAR     74  50  42 CALM      30.02S
RIVERSIDE AP   CLEAR     74  51  44 CALM      30.02S
RIV CYN CREST    N/A     75  58  56 CALM      30.01S
MORENO VALLEY    N/A     73  57  57 CALM      28.14S
MARCH ARB      CLEAR     74  47  37 NW5       30.06R
HORSETHIEF CYN   N/A     71  47  41 SW1       30.02S
PERRIS           N/A     74  51  44 CALM        N/A
MENIFEE          N/A     75  50  40 CALM      30.09S
HEMET EAST       N/A     74  52  46 CALM      30.01R
FRENCH VALLEY  FAIR      72  57  60 CALM      30.05S
TEMECULA         N/A     71  59  65 CALM      30.02S

$$

SAN BERNARDINO AND RIVERSIDE COUNTY MOUNTAINS

CITY           SKY/WX    TMP DP  RH WIND       PRES   REMARKS
BIG BEAR AP    CLEAR     54  28  37 CALM      30.39S
BIG BEAR SHEA    N/A     55  22  28 CALM      30.02R
ANGELUS OAKS     N/A     64  29  27 MISG      29.90R
PINE COVE        N/A     69   8   9 CALM      29.99R

$$

SOUTHERN DESERT INCLUDING THE COACHELLA VALLEY

CITY           SKY/WX    TMP DP  RH WIND       PRES   REMARKS
PALM SPRINGS   CLEAR     95  47  19 W7        29.88R
THOUSAND PALMS   N/A     91  51  25 NW13      29.82S
PALM DESERT      N/A     91  56  30 CALM      27.64F
THERMAL        CLEAR     96  48  19 NW15G24   29.80S
BLYTHE         CLEAR     99  26   7 W10       29.82R
IMPERIAL AP    CLEAR     89  49  25 W8        29.81R
EL CENTRO NAS  CLEAR     92  45  19 W12       29.81S
YUMA AZ        CLEAR     96  44  16 CALM      29.82R

$$

UPPER DESERT

CITY           SKY/WX    TMP DP  RH WIND       PRES   REMARKS
VICTORVILLE AP CLEAR     77  36  22 SW6       30.10S
HESPERIA         N/A     74  38  26 W3        30.06S
GRAY BUTTE AP  NOT AVBL
PALMDALE       CLEAR     76  34  21 S6        30.09R
LANCASTER      CLEAR     76  41  28 SW10      30.07S
EDWARDS AFB    CLEAR     78  43  29 SW14      30.04S
DAGGETT        CLEAR     88  36  15 W14       30.01R
29 PALMS N     CLEAR     89  20   8 W17       30.05R
NEEDLES        CLEAR     99  25   7 W10       29.86R

$$

REGIONAL REPORTS

CITY           SKY/WX    TMP DP  RH WIND       PRES   REMARKS
SANTA BARBARA  CLEAR     69  61  75 S6        29.99R
SANDBERG       CLEAR     72  46  39 NW16      30.23S
MT. WILSON       N/A     66  30  26 MISG        N/A
LAS VEGAS NV   CLEAR     95  25   8 S12       29.92S
PHOENIX AZ     PTCLDY   102  48  16 W5        29.86R HX  98
TIJUANA        CLEAR     68  54  60 CALM      30.03S
ENSENADA NW      N/A     68  32  26 W2        29.98R

$$

OFFSHORE ISLANDS

CITY           SKY/WX    TMP DP  RH WIND       PRES   REMARKS
CATALINA ARPT  CLEAR     62  58  86 W13       30.06S
SAN NICOLAS IS CLEAR    N/A N/A N/A NW28G33   30.04R

$$

MARINE AND OFFSHORE BUOY REPORTS

STATION/POSITION SKY/WX   TEMP    WIND        PRES    SWELL
                          AIR SEA DIR/SP/G            HT/PER/DIR
                          (F)     (DEG/KT/KT) (MB)    (FT/S/D)
TANNER BANKS               67 66  310/ 17/ 21 1017.7R   2/300/11
S CLEMENTE BASIN           69 70  320/ 14/ 17 1016.4R   2/130/12
SAN NICOLAS IS.               67                N/A     2/280/11
SO. S. ROSA ISLA           68 68  310/ 21/ 25 1016.9S   2/11
W. S. BARBARA CH           65 65  320/ 21/ 23 1017.1S   3/310/10
M. S. BARBARA CH           67 67  270/ 17/ 21 1015.6R
S. MONICA BASIN            69 70  290/ 12/ 14 1015.8S   3/280/ 6
S PEDRO CHANNEL               70                N/A
DANA POINT                    68                N/A     2/190/13
CMP PENDLETON NS              66                N/A     2/220/13
OCEANSIDE OFFSHR              68                N/A     2/200/13
TORREY PINES OTR              70                N/A     2/220/13
LA JOLLA 1                 69 70   20/  3/  3 1016.3F
MISSION BAY BUOY              69                N/A     2/260/11
SAN DIEGO BAY                 72              1016.8S
POINT LOMA SOUTH              70                N/A     2/220/13

$$



USA.gov is the U.S. government's official web portal to all federal, state and local government web resources and services.